Home > Weather > Lexington > Past weeks

Flag for USA Weather for the Past 2 Weeks in Lexington, North Carolina, USA

Now
63 °F

Low clouds.


Feels Like: 63 °F
Forecast: 60 / 83 °F
Wind: 5 mph from Northeast

Location: Davidson County Airport

Current Time: Apr 29, 2016 at 4:25:12 AM

Latest Report: Apr 29, 2016 at 3:30 AM


Visibility: 7 mi

Pressure: 29.93 "Hg

Humidity: 96%

Dew Point: 62 °F

Location of LexingtonLocation

Historic Weather in Lexington — Graph

°F

Lexington Temperature Yesterday

Maximum temperature yesterday: 84 °F (at 3:30 PM)
Minimum temperature yesterday: 63 °F (at 6:50 AM)
Average temperature yesterday: 72 °F

High & Low Weather Summary for the Past Weeks

 TemperatureHumidityPressure
High86 °F (Apr 19, 4:50 PM)100% (Apr 23, 1:30 AM)30.46 "Hg (Apr 23, 1:30 AM)
Low36 °F (Apr 17, 6:50 AM)18% (Apr 17, 4:50 PM)29.79 "Hg (Apr 27, 4:50 PM)
Average64 °F60%30.11 "Hg
* Reported Apr 14 3:10 AM — Apr 29 3:10 AM, Lexington, Weather by CustomWeather, © 2016

Note: Actual official high and low records may vary slightly from our data, if they occured in-between our weather recording intervals... More about our weather records

Advertising

Lexington Weather History for the Previous 24 Hours

Scroll right to see more
 ConditionsComfort  
Time TempWeatherWind HumidityBarometerVisibility
3:10 AM
Fri, Apr 29
64 °FLow clouds.5 mph95%29.93 "Hg7 mi
2:30 AM64 °FLow clouds.No wind95%29.92 "Hg7 mi
2:10 AM64 °FLow clouds.3 mph96%29.91 "Hg7 mi
1:50 AM64 °FPassing clouds.3 mph97%29.91 "Hg7 mi
12:50 AM64 °FClear.No wind98%29.90 "Hg7 mi
12:30 AM64 °FFog.No wind98%29.90 "Hg5 mi
11:50 PM
Thu, Apr 28
65 °FFog.No wind99%29.89 "Hg1 mi
11:30 PM65 °FFog.No wind98%29.88 "Hg2 mi
10:30 PM67 °FLight rain. Partly cloudy.No wind94%29.88 "Hg7 mi
9:50 PM67 °FFog.No wind98%29.88 "Hg4 mi
9:10 PM67 °FFog.No wind98%29.87 "Hg5 mi
8:50 PM68 °FFog.No wind97%29.86 "Hg5 mi
8:30 PM69 °FBroken clouds.No wind95%29.86 "Hg7 mi
7:50 PM67 °FFog.No wind98%29.84 "Hg5 mi
7:30 PM68 °FFog.No wind97%29.84 "Hg4 mi
7:10 PM68 °FFog.No wind97%29.83 "Hg4 mi
6:30 PM69 °FCloudy.No wind86%29.84 "Hg7 mi
6:10 PM79 °FRain. Cloudy.5 mph61%29.83 "Hg7 mi
5:50 PM80 °FLight rain. Partly sunny.10 mph57%29.80 "Hg10 mi
5:30 PM81 °FScattered clouds.8 mph51%29.80 "Hg10 mi
5:10 PM81 °FScattered clouds.6 mph52%29.81 "Hg10 mi
4:50 PM82 °FBroken clouds.6 mph49%29.80 "Hg10 mi
4:30 PM83 °FScattered clouds.8 mph50%29.81 "Hg10 mi
4:10 PM82 °FScattered clouds.8 mph50%29.81 "Hg10 mi
3:50 PM84 °FScattered clouds.6 mph49%29.82 "Hg10 mi
3:30 PM84 °FScattered clouds.8 mph50%29.83 "Hg10 mi
3:10 PM82 °FPartly sunny.6 mph56%29.85 "Hg10 mi
2:50 PM80 °FPartly sunny.5 mph61%29.86 "Hg10 mi
2:30 PM79 °FBroken clouds.5 mph61%29.87 "Hg10 mi
2:10 PM81 °FScattered clouds.5 mph59%29.87 "Hg10 mi
1:50 PM80 °FScattered clouds.5 mph61%29.88 "Hg10 mi
1:30 PM81 °FScattered clouds.5 mph61%29.88 "Hg10 mi
1:10 PM78 °FScattered clouds.No wind66%29.89 "Hg10 mi
12:50 PM79 °FScattered clouds.3 mph65%29.90 "Hg10 mi
12:30 PM76 °FPartly sunny.No wind71%29.91 "Hg10 mi
12:10 PM76 °FSunny.No wind70%29.91 "Hg10 mi
11:50 AM74 °FScattered clouds.3 mph73%29.91 "Hg10 mi
11:30 AM74 °FScattered clouds.No wind75%29.92 "Hg10 mi
11:10 AM73 °FScattered clouds.No wind77%29.92 "Hg10 mi
10:50 AM71 °FScattered clouds.No wind81%29.91 "Hg10 mi
10:30 AM70 °FScattered clouds.No wind84%29.92 "Hg10 mi
9:50 AM68 °FScattered clouds.3 mph92%29.93 "Hg7 mi
9:30 AM66 °FFog.No wind96%29.92 "Hg5 mi
9:10 AM66 °FLight rain. Mostly cloudy.No wind93%29.92 "Hg5 mi
8:30 AM65 °FBroken clouds.No wind94%29.92 "Hg7 mi
8:10 AM65 °FPartly sunny.No wind95%29.92 "Hg7 mi
7:30 AM63 °FFog.No wind98%29.91 "Hg5 mi
7:10 AM63 °FClear.No wind99%29.90 "Hg7 mi
6:50 AM63 °FClear.No wind98%29.89 "Hg7 mi
6:30 AM63 °FClear.No wind99%29.88 "Hg7 mi
5:50 AM63 °FClear.No wind98%29.88 "Hg7 mi
5:30 AM63 °FClear.No wind98%29.87 "Hg7 mi
5:10 AM64 °FClear.No wind97%29.87 "Hg7 mi
4:10 AM65 °FPassing clouds.No wind95%29.86 "Hg10 mi
Weather by CustomWeather, © 2016

See weather overviewHow to use our weather pages